{"data":{"norad_id":69138,"epoch":"2026-09-20T00:28:02.288352Z","epoch_age_seconds":64665,"freshness":"FRESH","line1":"1 69138U 26110Q   26263.01947093  .00022997  00000+0  71214-3 0  9995","line2":"2 69138  97.2839  98.0996 0001065  73.3662 286.7698 15.33460482 20146","mean_motion":15.33460482,"eccentricity":0.0001065,"inclination_deg":97.2839,"raan_deg":98.0996,"arg_perigee_deg":73.3662,"mean_anomaly_deg":286.7698,"bstar":0.00071214,"rev_number":2014,"period_min":93.905256568588,"perigee_km":464.76826429334,"apogee_km":466.22595835905,"semimajor_km":6843.6341113262,"source":"CELESTRAK","updated_at":"2026-09-20T09:00:44.087123Z"}}